Regional Weather Roundup
Issued by NWS Upton, NY

Current Version | Previous Version | Graphics & Text | Print | Product List | Glossary On
Versions: 1 2 3 4 5 6 7 8 9 10 11 12 13 14 15 16 17 18 19 20 21 22 23 24 25 26 27 28
000 ASUS41 KOKX 061804 RWROKX REGIONAL WEATHER ROUNDUP NATIONAL WEATHER SERVICE NEW YORK NY 200 PM EDT FRI MAY 06 2016 NOTE: "FAIR" INDICATES FEW OR NO CLOUDS BELOW 12,000 FEET WITH NO SIGNIFICANT WEATHER AND/OR OBSTRUCTIONS TO VISIBILITY. NYZ071-072-176-178-NJZ106-104-061900- NEW YORK CITY METRO AREA CITY SKY/WX TMP DP RH WIND PRES REMARKS CENTRAL PARK CLOUDY 51 48 89 E7 29.75S LAGUARDIA APRT CLOUDY 53 51 93 NE13 29.73S KENNEDY INTL CLOUDY 51 47 86 E18G33 29.74S NEWARK/LIBERTY CLOUDY 51 50 96 NE9 29.72S FOG BRNX BOT. GARD N/A 50 46 87 E10 29.75R TETERBORO CLOUDY 52 46 80 NE10G21 29.72S $$ NYZ177-179-078>081-061900- LONG ISLAND NEW YORK CITY SKY/WX TMP DP RH WIND PRES REMARKS FARMINGDALE N/A 52 47 83 E13 29.74S ISLIP CLOUDY 51 46 83 E21G28 29.76R SHIRLEY CLOUDY 50 46 86 E10G18 29.78R RIVERHEAD N/A 52 48 87 E12 29.78R WESTHAMPTON CLOUDY 45 45 100 E16G30 29.79S EAST HAMPTON CLOUDY 49 46 90 E16G26 29.80R MONTAUK POINT N/A 50 47 89 E13G24 29.83 $$ NYZ052-065-067-061900- HUDSON VALLEY CITY SKY/WX TMP DP RH WIND PRES REMARKS WHITE PLAINS CLOUDY 51 47 86 E8 29.74S NEWBURGH DRIZZLE 52 52 100 NE12 29.76 FOG MONTGOMERY LGT RAIN 52 49 89 NE14G21 29.74S POUGHKEEPSIE CLOUDY 55 51 86 N9 29.74F ALBANY PTSUNNY 62 45 53 N7 29.78F $$ NJZ001-105-106-008-010-013-015-019>022-104-061900- NEW JERSEY CITY SKY/WX TMP DP RH WIND PRES REMARKS NEWARK/LIBERTY CLOUDY 51 50 96 NE9 29.72S FOG TETERBORO CLOUDY 52 46 80 NE10G21 29.72S CALDWELL LGT RAIN 50 47 89 E15 29.73S FOG MORRISTOWN LGT RAIN 50 48 93 E12G21 29.73F FOG SOMERVILLE CLOUDY 51 48 89 NE8 29.68S FOG SUSSEX LGT RAIN 51 48 89 NE10 29.73S FOG ANDOVER N/A 51 49 92 VRB5 29.71S TRENTON LGT RAIN 50 47 89 E21G33 29.65S FOG MILLVILLE CLOUDY 52 48 86 N8G20 29.61S FOG ATLANTIC CITY CLOUDY 54 53 97 NE9 29.57F FOG WRIGHTSTOWN DRIZZLE 50 48 93 NE18G28 29.61S FOG TOMS RIVER CLOUDY 48 46 93 E10G23 29.64S BELMAR CLOUDY 48 47 96 E21G31 29.67F FOG $$ PAZ047>061-062-071-061900- EASTERN PENNSYLVANIA CITY SKY/WX TMP DP RH WIND PRES REMARKS PHILADELPHIA LGT RAIN 52 48 86 NE12 29.65R FOG ALLENTOWN LGT RAIN 52 49 89 E8 29.69R FOG SCRANTON CLOUDY 52 48 86 NE12 29.71F $$ CTZ002-004>006-009-010-012-RIZ004-006-007-MAZ004-011-015-061900- SOUTHERN NEW ENGLAND IN CT CITY SKY/WX TMP DP RH WIND PRES REMARKS BRADLEY INTL LGT RAIN 62 48 60 E12 29.77S HARTFORD CLOUDY 64 49 57 E10 29.77S DANBURY LGT RAIN 54 50 86 E7 29.77R FOG WTRBRY/OXFORD CLOUDY 55 46 71 E10 29.77S BRIDGEPORT CLOUDY 53 47 79 E15G23 29.76R MERIDEN CLOUDY 62 48 60 NE8 29.76S NEW HAVEN CLOUDY 51 47 86 SE16 29.78R CHESTER LGT RAIN 59 50 72 E10 29.76S GROTON CLOUDY 54 49 83 E18 29.78F WILLIMANTIC CLOUDY 62 47 57 E12 29.80S IN RI CITY SKY/WX TMP DP RH WIND PRES REMARKS PROVIDENCE CLOUDY 56 46 69 E14 29.83S BLOCK ISLAND CLOUDY 49 46 90 E18G24 29.83R WESTERLY CLOUDY 53 48 83 E14G20 29.81S IN MA CITY SKY/WX TMP DP RH WIND PRES REMARKS BOSTON PTSUNNY 50 44 80 E16 29.89R WORCESTER CLOUDY 58 46 64 E12 29.83R WESTFIELD LGT RAIN 63 47 55 E6 29.78S PROVINCETOWN CLOUDY 51 44 77 E15 29.89R NANTUCKET CLOUDY 52 44 74 NE20G29 29.84F $$ ANZ330-335-338-340-345-350-353-355-061900- COASTAL MARINE OBSERVATIONS STATION/POSITION TIME SKY/WX TEMP WIND PRES VSBY WAVE AIR SEA DIR/SP/G HT/PER (UTC) (F) (DEG/KT/KT) (MB) (MI) (FT/S) NY HARB ENTRANCE 1650 49 49 80/ 27/ 35 1004.7 9/ 7 20S FIRE ISLAND 1650 47 47 80/ 27/ 33 1004.9 9/ 7 GREAT SOUTH BAY 1715 49 53 80/ 19/ 29 N/A 23 SSW MONTAUK P 1750 46 46 90/ 23/ 29 1007.9 8/11 15 E BARNEGAT LI 1722 49 N/A 10/ 8 HUDSON CANYON 1650 54 48 1004.8 9/ 8 KINGS POINT 1700 50 53 1006.4 EXECUTION ROCKS NOT AVBL CENTRAL LI SOUND 1700 50 100/ 19/ 23 N/A 2/ 4 EASTERN LI SOUND 1700 50 48 100/ 21/ 27 N/A ROBBINS REEF 1700 50 70/ 14/ 16 1005.5 $$ >>>>>>>>>>>>>>>>>>>>>>>>>>>> KEY <<<<<<<<<<<<<<<<<<<<<<<<<<< > < > SKY/WX - SKY CONDITION/PRESENT WEATHER < > TMP - TEMPERATURE IN FAHRENHEIT < > DP - DEWPOINT IN FAHRENHEIT < > RH - RELATIVE HUMIDITY IN PERCENT < > WIND - DIRECTION AND SPEED IN MPH < > PRES - MEAN SEA LEVEL PRESSURE IN INCHES OF HG < > WCI - WIND CHILL INDEX < > VSB - VISIBILITY IN MILES < > HX - HEAT INDEX < > TC - TEMPERATURE IN CELSIUS < > VRB - VARIABLE WIND DIRECTION < > < >>>>>>>>>>>>>>>>>>>>>>>>>>>> KEY <<<<<<<<<<<<<<<<<<<<<<<<<<<

USA.gov is the U.S. government's official web portal to all federal, state and local government web resources and services.